Regional Weather Roundup
Issued by NWS

Home | Current Version | Previous Version | Text Only | Print | Product List | Glossary On
Versions: 1 2 3 4 5 6 7 8 9 10 11 12 13 14 15 16 17 18 19 20 21 22 23 24 25 26 27 28 29 30 31 32 33 34 35 36 37 38 39 40 41 42 43 44 45 46 47 48 49 50
000
ASUS43 KLSX 060207
RWRMO

WEATHER SUMMARY FOR MISSOURI
NATIONAL WEATHER SERVICE SPRINGFIELD MO
800 PM CST MON DEC 05 2016

NOTE: "FAIR" INDICATES FEW OR NO CLOUDS BELOW 12,000 FEET WITH NO
       SIGNIFICANT WEATHER AND/OR OBSTRUCTIONS TO VISIBILITY.
       CURRENT SKY AND/OR WEATHER CONDITIONS ARE NOT AVAILABLE FOR
       CHILLICOTHE AND FARMINGTON.

MOZ001>031-035>038-043-044-053-054-060300-
...NORTHERN AND WESTERN MISSOURI...

CITY           SKY/WX    TMP DP  RH WIND       PRES   REMARKS
KANSAS CTY INT CLEAR     40  32  73 S9        29.72F
KANSAS C DTWN  CLEAR     43  33  68 S8        29.73F
LEE`S SUMMIT   CLEAR     40  33  76 SE6       29.74F
ST JOSEPH      CLEAR     36  31  82 SE5       29.75R
CHILLICOTHE      N/A     39  34  82 SE8       29.78F
KIRKSVILLE     CLOUDY    36  35  96 SE8       29.82S FOG     WCI  30

$$
MOZ066>068-077>081-088>096-101>105-060300-
...SOUTHWEST MISSOURI...

CITY           SKY/WX    TMP DP  RH WIND       PRES   REMARKS
SPRINGFIELD    PTCLDY    40  34  79 SE9       29.74F
JOPLIN         PTCLDY    38  36  92 VRB5      29.75S
BRANSON        CLOUDY    39  37  93 SE6       29.76S

$$
MOZ032>034-039>042-045>050-055>058-069>072-060300-
...CENTRAL MISSOURI...

CITY           SKY/WX    TMP DP  RH WIND       PRES   REMARKS
COLUMBIA       CLEAR     36  34  92 E8        29.80S WCI  30
JEFFERSON CITY CLEAR     36  34  92 SE5       29.81S
ROLLA          CLOUDY    35  32  88 SE9       29.77F WCI  28
SEDALIA        CLEAR     36  32  85 E3        29.79F
WHITEMAN AFB   PTCLDY    35  35 100 SE7       29.75F WCI  29
WARRENSBURG    CLEAR     37  32  81 E9        29.76F
OSAGE BEACH    CLEAR     40  33  76 E5        29.79F

$$
MOZ051-052-059>065-060300-
...EAST CENTRAL MISSOURI...

CITY           SKY/WX    TMP DP  RH WIND       PRES   REMARKS
ST LOUIS INTL  CLOUDY    40  33  76 E13       29.85F
SPIRIT OF STL  MOCLDY    39  35  86 E8        29.84F
ST CHARLES     MOCLDY    39  35  86 SE12      29.86F

$$
MOZ072>076-082>087-097>100-106>115-060300-
...SOUTH CENTRAL AND SOUTHEAST MISSOURI...

CITY           SKY/WX    TMP DP  RH WIND       PRES   REMARKS
CAPE GIRARDEAU CLOUDY    41  35  79 E8        29.83F
FARMINGTON     MOCLDY    39  35  86 SE3       29.83S
POPLAR BLUFF   CLOUDY    42  38  85 E6        29.83F
WEST PLAINS    CLOUDY    40  37  89 SE7       29.80F

$$



USA.gov is the U.S. government's official web portal to all federal, state and local government web resources and services.